ブランパン彗星

289P/Blanpain (2019)

English version
Home page
Updated on September 14, 2019

---------------------------------------------------------------------

・ プロフィール

・ 軌道要素

Epoch 2019 Dec. 23.0 TT = JDT 2458840.5
T 2019 Dec. 20.96650 TT                                 MPCW
q   0.9588872            (2000.0)            P               Q
n   0.18532070     Peri.    9.84347     +0.19563579     -0.97597868
a   3.0468665      Node    68.92398     +0.89262158     +0.13672733
e   0.6852874      Incl.    5.89754     +0.40614449     +0.16962092
P   5.32
From 308 observations 2003 Oct. 25-2013 July 9, mean residual 0".7.
     Nongravitational parameters A1 = +0.10, A2 = -0.0054.

・ 星図

・ 光度変化

        H = 20.5  G = 0.15

---------------------------------------------------------------------

軌道要素はM.P.E.C. 2015-E14に掲載されたものです。
星図はステラナビゲータ Ver.10 (アストロアーツ) で作成したものです。
光度グラフはComet for Windowsで作成したものです。

---------------------------------------------------------------------

Copyright(C) Seiichi Yoshida (comet@aerith.net). All rights reserved.